This is the latest recevied weather packets stored in our database for station/object KJ5EHN. If no packets are shown the sender has not sent any weather packets the latest 10 day(s).
| Time | Temp. | Humidity | Pressure | Rain* | Wind** | Luminosity | Snow |
|---|---|---|---|---|---|---|---|
| 1778005086 | 28.33° C | 64% | 1004.7 hPa | 0 mm | - | - | - |
| 1778004783 | 28.33° C | 64% | 1004.6 hPa | 0 mm | - | - | - |
| 1778004479 | 28.33° C | 63% | 1004.6 hPa | 0 mm | - | - | - |
| 1778004176 | 28.89° C | 64% | 1004.6 hPa | 0 mm | - | - | - |
| 1778003872 | 29.44° C | 64% | 1004.5 hPa | 0 mm | - | - | - |
| 1778003569 | 28.33° C | 67% | 1004.7 hPa | 0 mm | - | - | - |
| 1778003265 | 28.33° C | 68% | 1004.6 hPa | 0 mm | - | - | - |
| 1778002963 | 28.33° C | 67% | 1004.6 hPa | 0 mm | - | - | - |
| 1778002658 | 27.78° C | 68% | 1004.5 hPa | 0 mm | - | - | - |
| 1778002355 | 27.78° C | 68% | 1004.4 hPa | 0 mm | - | - | - |
| 1778002052 | 27.78° C | 69% | 1004.5 hPa | 0 mm | - | - | - |
| 1778001750 | 27.78° C | 69% | 1004.6 hPa | 0 mm | - | - | - |
| 1778001449 | 27.22° C | 72% | 1004.3 hPa | 0 mm | - | - | - |
| 1778001147 | 26.11° C | 73% | 1004.6 hPa | 0 mm | - | - | - |
| 1778000843 | 25.56° C | 74% | 1004.6 hPa | 0 mm | - | - | - |
| 1778000540 | 25.56° C | 75% | 1004.8 hPa | 0 mm | - | - | - |
| 1778000236 | 25.56° C | 75% | 1004.4 hPa | 0 mm | - | - | - |
| 1777999932 | 25.56° C | 75% | 1004.7 hPa | 0 mm | - | - | - |
| 1777999627 | 25.56° C | 75% | 1004.4 hPa | 0 mm | - | - | - |
| 1777999325 | 25.56° C | 75% | 1004.2 hPa | 0 mm | - | - | - |
| 1777999023 | 25° C | 75% | 1005.2 hPa | 0 mm | - | - | - |
| 1777998721 | 25° C | 75% | 1004.5 hPa | 0 mm | - | - | - |
| 1777998418 | 25° C | 75% | 1004.4 hPa | 0 mm | - | - | - |
| 1777998115 | 25.56° C | 75% | 1005 hPa | 0 mm | - | - | - |
| 1777997812 | 25.56° C | 74% | 1004.6 hPa | 0 mm | - | - | - |
* Rain latest hour (hover to see other rain measurements)
** Current wind speed in m/s (hover to see current wind gust speed)